Powrót do katalogu

SL-8 DEB *

AktywnyLEO
NORAD 13498·DEBRIS·🇷🇺 Russia

Wystrzelony May 7, 1981 z Plesetsk Cosmodrome

Loading…

Następne Przeloty (najbliższe 24 godziny)

TLE

ŚwieżeSource: Space-Track

Epoka: Sep 14, 2026, 02:33 UTC

1 13498U 81041C   26257.10688677  .00001619  00000-0  25980-3 0  9998
2 13498  74.0128 125.2974 0009366 200.5888 313.5927 14.72536879414151

Śledź SL-8 DEB * w czasie rzeczywistym z AllMySat

Download on the App Store